EET,Max TemperatureF,Mean TemperatureF,Min TemperatureF,Max Dew PointF,MeanDew PointF,Min DewpointF,Max Humidity, Mean Humidity, Min Humidity, Max Sea Level PressureIn, Mean Sea Level PressureIn, Min Sea Level PressureIn, Max VisibilityMiles, Mean VisibilityMiles, Min VisibilityMiles, Max Wind SpeedMPH, Mean Wind SpeedMPH, Max Gust SpeedMPH,PrecipitationIn, CloudCover, Events, WindDirDegrees
2012-11-1,66,56,47,47,42,39,100,66,30,30.24,30.20,30.15,9,6,1,7,5,,0.00,4,,159
2012-11-2,67,55,44,45,42,39,87,60,29,30.15,30.14,30.09,9,7,6,10,8,,0.00,6,,169
2012-11-3,65,54,42,48,44,41,93,74,33,30.21,30.17,30.15,9,7,6,15,7,,0.04,5,,222
2012-11-4,65,53,41,48,42,37,94,74,33,30.24,30.22,30.21,9,5,0,9,5,,0.00,5,Fog,192
2012-11-5,67,52,38,41,39,36,93,60,22,30.21,30.18,30.15,9,7,6,9,6,,0.00,6,,191
2012-11-6,68,52,37,39,35,31,80,52,15,30.15,30.13,30.09,9,8,6,15,6,,0.00,5,,205
2012-11-7,69,52,39,39,36,34,76,50,20,30.15,30.11,30.06,9,7,6,14,6,,0.00,6,,189
2012-11-8,62,52,42,45,42,38,93,73,30,30.04,30.00,29.95,9,6,2,15,5,,0.04,6,Rain,1
2012-11-9,51,48,46,47,45,43,93,89,77,29.95,29.90,29.86,9,5,1,32,10,46,0.28,8,Rain,130
2012-11-10,50,44,37,44,40,36,93,88,63,29.98,29.91,29.86,9,6,5,15,6,,0.47,8,Rain,336
2012-11-11,45,41,37,40,37,36,93,89,80,30.06,30.02,29.98,9,6,4,17,8,,0.39,8,Rain,11
2012-11-12,52,44,39,41,39,37,93,83,63,30.21,30.15,30.09,9,7,6,22,14,,0.08,6,Rain,8
2012-11-13,60,48,35,41,38,33,100,80,38,30.21,30.17,30.15,9,7,6,15,6,,0.00,3,,352
2012-11-14,56,48,41,38,36,34,93,74,39,30.18,30.16,30.15,9,7,6,13,4,,0.00,5,,342
2012-11-15,57,44,32,43,36,30,100,75,28,30.27,30.25,30.24,9,7,2,9,3,,0.00,3,,129
2012-11-16,64,46,31,36,33,30,85,59,20,30.27,30.26,30.24,9,9,9,12,5,,0.00,,,143
2012-11-17,61,47,33,37,32,27,83,61,20,30.24,30.20,30.18,9,9,9,16,9,,0.00,,,139
2012-11-18,60,46,33,32,29,27,86,62,20,30.18,30.15,30.12,9,8,6,14,8,,0.00,3,,126
2012-11-19,61,44,30,32,27,24,80,56,15,30.15,30.13,30.12,9,9,9,9,4,,0.00,,,142
2012-11-20,45,38,30,39,33,27,100,94,59,30.18,30.17,30.15,9,2,0,7,2,,0.00,8,Fog,272
2012-11-21,46,40,32,39,32,27,100,79,50,30.18,30.14,30.09,9,4,0,6,3,,0.00,4,Fog-Rain,102
2012-11-22,52,42,31,37,34,28,93,74,42,30.12,30.08,30.06,9,7,6,14,7,,0.00,7,Rain,96
2012-11-23,46,44,41,41,39,37,100,88,75,30.09,30.09,30.09,9,5,2,12,5,,0.12,8,Rain,92
2012-11-24,44,40,35,41,36,34,100,90,71,30.09,30.08,30.06,9,6,2,9,4,,0.08,7,Rain,340
2012-11-25,41,36,32,35,33,32,100,91,66,30.09,30.09,30.06,9,4,0,14,8,,0.16,7,Fog-Rain-Snow,5
2012-11-26,45,39,33,34,31,30,93,79,43,30.15,30.11,30.09,9,6,0,9,5,,0.00,6,Fog,349
2012-11-27,48,38,26,32,29,25,93,75,40,30.18,30.16,30.15,9,7,6,8,4,,0.00,5,,138
2012-11-28,52,38,26,33,30,23,100,72,36,30.21,30.19,30.18,9,6,0,12,8,,0.00,8,Fog,145
2012-11-29,49,39,29,32,30,25,93,70,40,30.21,30.15,30.12,9,7,6,13,7,,0.00,6,,154
2012-11-30,56,46,37,34,32,30,75,62,28,30.21,30.19,30.15,9,7,6,13,8,,0.00,6,,157